Weather History for EGWU - May, 2014

Change the Weather History Date:

Wednesday, May 7, 2014

  Actual Average Record
Temperature  
Mean Temperature 57 °F -  
Max Temperature 64 °F 63 °F - ()
Min Temperature 50 °F 47 °F - ()
Degree Days  
Heating Degree Days 8    
Growing Degree Days 7 (Base 50)    
Moisture  
Dew Point 44 °F    
Average Humidity 63    
Maximum Humidity 88    
Minimum Humidity 33    
Precipitation  
Precipitation 0.01 in - - ()
Sea Level Pressure  
Sea Level Pressure 29.79 in    
Wind  
Wind Speed 12 mph ()    
Max Wind Speed 21 mph    
Max Gust Speed 33 mph    
Visibility 9.9 miles    
Events Rain    
T = Trace of Precipitation, MM = Missing Value Source: Averaged Metar Reports

Daily Weather History Graph

Daily Weather History Graph

Search for Another Location

Airport or City:

Trip Planner

Search our weather history database for the weather conditions in past years. The results will help you decide how hot, cold, wet, or windy it might be!

Date:

Astronomy

May. 07, 2014 Rise Set
Actual Time 5:22 AM BST 8:34 PM BST
Civil Twilight 4:43 AM BST 9:14 PM BST
Nautical Twilight 3:51 AM BST 10:07 PM BST
Astronomical Twilight 2:42 AM BST 11:17 PM BST
Moon 12:35 PM BST (5/7) 2:05 AM BST (5/7)
Length of Visible Light 16h 31m
Length of Day
15h 11m
First Quarter, 53% of the Moon is Illuminated
May 7
First Quarter
May 14
Full
May 21
Last Quarter
May 28
New
Jun 5
First Quarter

Hourly Weather History & Observations

Time (BST) Temp. Dew Point Humidity Pressure Visibility Wind Dir Wind Speed Gust Speed Precip Events Conditions
12:00 AM 52 °F 46 °F 73% 29.74 in 37 mi WSW 9.2 mph - -   Mostly Cloudy
12:50 AM 51.8 °F 46.4 °F 82% 29.71 in 6.2 mi SW 8.1 mph - N/A   Mostly Cloudy
1:00 AM 52 °F 46 °F 73% 29.74 in 28 mi SW 8.1 mph - -   Mostly Cloudy
1:50 AM 51.8 °F 46.4 °F 82% 29.71 in 6.2 mi SW 9.2 mph - N/A   Mostly Cloudy
2:00 AM 52 °F 46 °F 75% 29.73 in 19 mi SW 9.2 mph - -   Mostly Cloudy
2:50 AM 51.8 °F 46.4 °F 82% 29.71 in 6.2 mi SW 6.9 mph - N/A   Mostly Cloudy
3:00 AM 51 °F 46 °F 78% 29.73 in 19 mi SW 6.9 mph - -   Mostly Cloudy
3:50 AM 51.8 °F 46.4 °F 82% 29.71 in 6.2 mi SW 8.1 mph - N/A   Mostly Cloudy
4:00 AM 51 °F 47 °F 80% 29.73 in 22 mi SW 8.1 mph - -   Mostly Cloudy
4:50 AM 51.8 °F 48.2 °F 88% 29.71 in 6.2 mi WSW 11.5 mph - N/A   Mostly Cloudy
5:00 AM 52 °F 47 °F 79% 29.73 in 17 mi WSW 11.5 mph - -   Scattered Clouds
5:50 AM 51.8 °F 46.4 °F 82% 29.71 in 6.2 mi WSW 9.2 mph - N/A   Partly Cloudy
6:00 AM 51 °F 47 °F 80% 29.74 in 19 mi WSW 9.2 mph - -   Scattered Clouds
6:50 AM 51.8 °F 46.4 °F 82% 29.74 in 6.2 mi WSW 12.7 mph - N/A   Mostly Cloudy
7:00 AM 52 °F 46 °F 72% 29.76 in 19 mi WSW 12.7 mph - -   Scattered Clouds
7:50 AM 53.6 °F 44.6 °F 72% 29.77 in 6.2 mi West 15.0 mph - N/A   Mostly Cloudy
8:00 AM 54 °F 45 °F 64% 29.77 in 19 mi West 15.0 mph - -   Partly Cloudy
8:50 AM 51.8 °F 46.4 °F 82% 29.77 in 6.2 mi West 13.8 mph - N/A   Mostly Cloudy
9:00 AM 53 °F 46 °F 70% 29.78 in 19 mi West 13.8 mph - - Rain Light Rain Showers
9:50 AM 55.4 °F 44.6 °F 67% 29.77 in 6.2 mi West 15.0 mph - N/A   Mostly Cloudy
10:00 AM 55 °F 44 °F 56% 29.79 in 16 mi West 15.0 mph - -   Partly Cloudy
10:50 AM 53.6 °F 44.6 °F 72% 29.80 in 6.2 mi West 19.6 mph - N/A Rain Light Rain Showers
11:00 AM 54 °F 44 °F 60% 29.81 in 12 mi West 19.6 mph - - Rain Light Rain Showers
11:50 AM 57.2 °F 44.6 °F 63% 29.80 in 6.2 mi WSW 17.3 mph - N/A   Mostly Cloudy
12:00 PM 57 °F 44 °F 52% 29.81 in 19 mi WSW 17.3 mph - - Rain Light Rain Showers
12:50 PM 59.0 °F 42.8 °F 55% 29.80 in 6.2 mi WSW 16.1 mph - N/A   Mostly Cloudy
1:00 PM 59 °F 43 °F 44% 29.81 in 25 mi WSW 16.1 mph - -   Partly Cloudy
1:50 PM 59.0 °F 42.8 °F 55% 29.80 in 6.2 mi WSW 19.6 mph - N/A   Mostly Cloudy
2:00 PM 60 °F 42 °F 40% 29.82 in 37 mi WSW 19.6 mph - - Rain Light Rain Showers
2:50 PM 60.8 °F 42.8 °F 52% 29.80 in 6.2 mi WSW 16.1 mph - N/A   Scattered Clouds
3:00 PM 61 °F 42 °F 38% 29.81 in 34 mi WSW 16.1 mph - -   Partly Cloudy
3:50 PM 62.6 °F 41.0 °F 45% 29.80 in 6.2 mi West 18.4 mph 29.9 mph N/A   Scattered Clouds
4:00 PM 62 °F 40 °F 33% 29.80 in 31 mi West 18.4 mph - -   Partly Cloudy
4:50 PM 60.8 °F 42.8 °F 52% 29.80 in 6.2 mi WSW 17.3 mph - N/A   Mostly Cloudy
5:00 PM 60 °F 44 °F 43% 29.81 in 19 mi WSW 17.3 mph - -   Mostly Cloudy
5:50 PM 59.0 °F 42.8 °F 55% 29.80 in 6.2 mi West 19.6 mph - N/A   Scattered Clouds
6:00 PM 59 °F 44 °F 45% 29.82 in 34 mi West 19.6 mph - -   Mostly Cloudy
6:50 PM 57.2 °F 41.0 °F 55% 29.83 in 6.2 mi West 20.7 mph 33.4 mph N/A   Mostly Cloudy
7:00 PM 58 °F 40 °F 40% 29.83 in 31 mi West 20.7 mph - -   Partly Cloudy
7:50 PM 57.2 °F 41.0 °F 55% 29.83 in 6.2 mi West 20.7 mph - N/A   Mostly Cloudy
8:00 PM 57 °F 40 °F 42% 29.85 in 31 mi West 20.7 mph - -   Mostly Cloudy
8:50 PM 55.4 °F 42.8 °F 63% 29.83 in 6.2 mi West 17.3 mph - N/A   Mostly Cloudy
9:00 PM 55 °F 42 °F 51% 29.86 in 31 mi West 17.3 mph - -   Mostly Cloudy
9:50 PM 55.4 °F 41.0 °F 58% 29.86 in 6.2 mi WSW 15.0 mph - N/A   Overcast
10:00 PM 55 °F 42 °F 50% 29.86 in 37 mi WSW 15.0 mph - -   Overcast
10:50 PM 55.4 °F 42.8 °F 63% 29.86 in 6.2 mi WSW 13.8 mph - N/A   Mostly Cloudy
11:00 PM 55 °F 43 °F 55% 29.87 in 34 mi WSW 13.8 mph - -   Mostly Cloudy
11:50 PM 53.6 °F 42.8 °F 67% 29.86 in 6.2 mi West 13.8 mph - N/A   Mostly Cloudy